Flag Weather past 2 weeks in Kamloops, British Columbia, Canada

Now
34 °F

Drizzle. More clouds than sun.


Feels Like: 26 °F
Forecast: 32 / 39 °F
Wind: 9 mph from Southeast

Location: Kamloops

Current Time: Nov 26, 2014 at 1:58:34 PM

Latest Report: Nov 26, 2014 at 1:00 PM


Visibility: 8 mi

Pressure: 30.11 "Hg

Humidity: 93%

Dew point: 32 °F

Location of KamloopsLocation

Historic Weather in Kamloops — Graph

°F

Kamloops temperature yesterday

Maximum temperature yesterday: 37 °F (at 3:00 AM)
Minimum temperature yesterday: 34 °F (at 7:00 AM)
Average temperature yesterday: 36 °F

Past Weeks' High & Low Weather Summary

 TemperatureHumidityPressure
High45 °F (Nov 22, 1:00 PM)100% (Nov 23, 2:00 AM)30.82 "Hg (Nov 23, 2:00 AM)
Low9 °F (Nov 15, 5:00 AM)32% (Nov 11, 1:00 PM)29.27 "Hg (Nov 21, 10:00 PM)
Average27 °F74%30.28 "Hg
* Reported Nov 11 12:00 Noon — Nov 26 12:00 Noon, Kamloops, Weather by CustomWeather, © 2014

Note: Actual official high and low records may vary slightly from our data, if they occured in-between our weather recording intervals... More about our weather records

Advertising

Kamloops weather history for previous 24 hours

 ConditionsComfort  
Time TempWeatherWind HumidityBarometerVisibility
12:00 PM
Nov 26
34 °FDrizzle. More clouds than sun.8 mph93%30.13 "Hg8 mi
11:00 AM34 °FLight rain. Mostly cloudy.12 mph93%30.14 "Hg6 mi
10:46 AM34 °FLight rain. Mostly cloudy.12 mph93%30.14 "Hg6 mi
10:00 AM34 °FLight snow. Mostly cloudy.13 mph93%30.15 "Hg4 mi
9:00 AM34 °FLight snow. Mostly cloudy.10 mph93%30.16 "Hg2 mi
8:45 AM32 °FLight snow. Mostly cloudy.8 mph100%30.16 "Hg2 mi
8:00 AM32 °FLight snow. Mostly cloudy.10 mph100%30.17 "Hg1 mi
7:00 AM32 °FLight snow. Mostly cloudy.9 mph93%30.17 "Hg1 mi
6:46 AM32 °FLight snow. Mostly cloudy.9 mph93%30.18 "Hg1 mi
6:00 AM32 °FLight snow. Mostly cloudy.7 mph93%30.19 "Hg1 mi
5:00 AM32 °FLight snow. Overcast.9 mph93%30.21 "Hg2 mi
4:00 AM32 °FLight rain. Ice fog.8 mph93%30.22 "Hg5 mi
3:00 AM34 °FLight rain. Fog.9 mph93%30.24 "Hg5 mi
2:00 AM34 °FLight rain. Fog.10 mph93%30.24 "Hg5 mi
1:00 AM34 °FLight rain. Fog.8 mph93%30.26 "Hg5 mi
12:00 AM34 °FDrizzle. Fog.8 mph93%30.28 "Hg5 mi
11:00 PM
Nov 25
36 °FDrizzle. Fog.8 mph93%30.27 "Hg5 mi
10:00 PM36 °FLight rain. Mostly cloudy.8 mph93%30.28 "Hg6 mi
9:00 PM36 °FLight rain. Mostly cloudy.6 mph93%30.27 "Hg6 mi
8:00 PM36 °FLight rain. Mostly cloudy.8 mph93%30.28 "Hg8 mi
7:00 PM36 °FLight rain. Mostly cloudy.2 mph93%30.28 "Hg10 mi
6:00 PM36 °FLight rain. Mostly cloudy.6 mph93%30.28 "Hg10 mi
5:00 PM36 °FLight rain. Mostly cloudy.2 mph93%30.29 "Hg10 mi
4:00 PM37 °FMore clouds than sun.3 mph87%30.29 "Hg10 mi
3:00 PM37 °FMore clouds than sun.2 mph93%30.28 "Hg20 mi
2:00 PM37 °FMostly cloudy.2 mph87%30.29 "Hg40 mi
1:00 PM37 °FMostly cloudy.No wind93%30.29 "Hg40 mi
Weather by CustomWeather, © 2014

See weather overviewHow to use our weather pages